Location: Aressy
(43.2833°N, 0.3167°W)
Time: 21:22:52
(UTC+00:00)

COSMO-SKYMED 1 - Pass Details

Date: 28 January 2021
Orbit: 621 x 623 km, 97.9° (Epoch: 03 March)

Event Time Altitude Azimuth Distance (km) Brightness Sun altitude
Rises 18:45:04 0° 5° (N) 2,913 5.9 -17.7°
Reaches altitude 10° 18:47:23 10° 357° (N) 2,002 5.1 -18.1°
Maximum altitude 18:51:24 38° 290° (WNW) 952 4.0 -18.9°
Drops below altitude 10° 18:55:25 10° 222° (SW) 1,987 5.8 -19.6°
Sets 18:57:41 0° 214° (SW) 2,888 6.6 -20.0°
